Regional Weather Roundup
Issued by NWS

Home | Current Version | Previous Version | Text Only | Print | Product List | Glossary On
Versions: 1 2 3 4 5 6 7 8 9 10 11 12 13 14 15 16 17 18 19 20 21 22 23 24 25 26 27 28 29 30 31 32 33 34 35 36 37 38 39 40 41 42 43 44 45 46 47 48 49 50
000
ASUS43 KDTX 210610
RWRMI
MICHIGAN HOURLY REGIONAL WEATHER ROUNDUP
NATIONAL WEATHER SERVICE DETROIT/PONTIAC MI
100 AM EST SUN JAN 21 2018

NOTE: "FAIR" INDICATES FEW OR NO CLOUDS BELOW 12,000 FEET WITH NO
SIGNIFICANT WEATHER AND/OR OBSTRUCTION TO VISIBILITY.

MIZ047>049-052>055-059>063-066>070-074>076-081>083-210700-
SOUTHEAST LOWER MICHIGAN

CITY           SKY/WX    TMP DP  RH WIND       PRES   REMARKS
ADRIAN         CLOUDY    35  34  96 W3        30.06R FOG
6HR MIN TEMP:  31; 6HR MAX TEMP:  36;

ALMA           FAIR      33  31  93 SW3       30.02R
6HR MIN TEMP:  32; 6HR MAX TEMP:  38;

ANN ARBOR      CLOUDY    35  33  92 SW5       30.04R WCI  31
BAD AXE        FAIR      32  29  88 SW6       30.00S WCI  26
6HR MIN TEMP:  29; 6HR MAX TEMP:  35;

CARO           FAIR      27  26  95 S5        30.01S WCI  22
DETROIT CITY   CLOUDY    36  32  85 W9        30.05R WCI  29
6HR MIN TEMP:  34; 6HR MAX TEMP:  38;

DETROIT        CLOUDY    35  33  92 SW3       30.06R
6HR MIN TEMP:  31; 6HR MAX TEMP:  35;

FLINT          FAIR      33  29  85 SW6       30.03R WCI  28
6HR MIN TEMP:  32; 6HR MAX TEMP:  37;

GROSSE ILE     CLOUDY    37  34  90 SW3       30.05R
6HR MIN TEMP:  29; 6HR MAX TEMP:  37;

HILLSDALE      CLOUDY    36  34  93 SW5       30.02S FOG     WCI  32
HOWELL         CLOUDY    33  32  96 S5        30.02S FOG     WCI  29
6HR MIN TEMP:  32; 6HR MAX TEMP:  36;


CITY           SKY/WX    TMP DP  RH WIND       PRES   REMARKS
JACKSON        CLOUDY    36  34  92 SW7       30.03R FOG     WCI  30
6HR MIN TEMP:  29; 6HR MAX TEMP:  37;

LAMBERTVILLE   CLOUDY    39  36  89 SW7       30.05S WCI  34
6HR MIN TEMP:  35; 6HR MAX TEMP:  39;

LANSING        FAIR      33  31  92 SW7       30.03R FOG     WCI  27
6HR MIN TEMP:  32; 6HR MAX TEMP:  36;

LAPEER         FAIR      33  29  86 CALM      30.03R
6HR MIN TEMP:  33; 6HR MAX TEMP:  36;

MASON          CLOUDY    36  32  87 CALM      30.03R
MONROE         CLOUDY    37  34  90 SW7       30.05R WCI  31
6HR MIN TEMP:  32; 6HR MAX TEMP:  37;

MT. CLEMENS    FAIR     N/A N/A N/A SW6         N/A
PONTIAC        MOCLDY    30  29  96 CALM      30.02R
6HR MIN TEMP:  28; 6HR MAX TEMP:  39;

PORT HOPE        N/A     36  30  79 SW7       29.97S WCI  30
6HR MIN TEMP:  33; 6HR MAX TEMP:  37;

PORT HURON     FAIR      30  28  93 CALM      30.04R
TRI CITIES     FAIR      32  30  92 S6        30.02R WCI  26
6HR MIN TEMP:  32; 6HR MAX TEMP:  37;

MIDLAND        FAIR      29  28  96 CALM      30.01S FOG
6HR MIN TEMP:  29; 6HR MAX TEMP:  38;

TROY           FAIR      33  30  90 SW5       30.05S WCI  28
SAGINAW HB     FAIR      32  30  93 SW6       30.02S WCI  26
$$
MIZ043>046-050>051-056>058-064>065-071>073-077>080-210700-
SOUTHWEST LOWER MICHIGAN

CITY           SKY/WX    TMP DP  RH WIND       PRES   REMARKS
BATTLE CREEK   CLOUDY    36  34  92 S6        30.03R FOG     WCI  31
6HR MIN TEMP:  32; 6HR MAX TEMP:  37;

BENTON HARBOR  CLOUDY    38  34  85 S6        30.02S WCI  33
6HR MIN TEMP:  36; 6HR MAX TEMP:  39;

BIG RAPIDS     FAIR      30  28  90 CALM      29.98S FOG
6HR MIN TEMP:  30; 6HR MAX TEMP:  38;

COLDWATER      CLOUDY    36  36 100 SW3       30.03S FOG
6HR MIN TEMP:  35; 6HR MAX TEMP:  37;

FREMONT        FAIR      32  28  84 CALM      29.99F
6HR MIN TEMP:  31; 6HR MAX TEMP:  35;

HOLLAND        CLOUDY    36  33  89 S5        30.02R WCI  32
6HR MIN TEMP:  33; 6HR MAX TEMP:  36;

GRAND RAPIDS   MOCLDY    35  31  85 S6        30.02R WCI  30
6HR MIN TEMP:  30; 6HR MAX TEMP:  36;

IONIA          MOCLDY    34  32  92 SW7       30.01R WCI  28
6HR MIN TEMP:  32; 6HR MAX TEMP:  35;

KALAMAZOO      CLOUDY    37  35  92 SW7       30.03R FOG     WCI  32
6HR MIN TEMP:  35; 6HR MAX TEMP:  38;

LUDINGTON      FAIR      29  29 100 SE3       29.97F FOG
6HR MIN TEMP:  28; 6HR MAX TEMP:  34;

MARSHALL       CLOUDY    36  35  98 SW3       30.03R FOG
6HR MIN TEMP:  32; 6HR MAX TEMP:  36;

MOUNT PLEASANT FAIR      31  28  91 CALM      30.00S FOG
6HR MIN TEMP:  31; 6HR MAX TEMP:  40;

MUSKEGON       CLOUDY    37  34  89 S9        30.00F FOG     WCI  30
6HR MIN TEMP:  32; 6HR MAX TEMP:  38;

SOUTH HAVEN    CLOUDY    38  35  89 S3        30.02S
$$
MIZ016>042-210700-
NORTHERN LOWER MICHIGAN

CITY           SKY/WX    TMP DP  RH WIND       PRES   REMARKS
ALPENA         FAIR      27  26  96 N3        29.99R
6HR MIN TEMP:  26; 6HR MAX TEMP:  35;

BEAVER ISLAND  FAIR      29  28  99 CALM      29.96F FOG
6HR MIN TEMP:  28; 6HR MAX TEMP:  36;

BELLAIRE       FAIR      28  28 100 CALM      29.99R
6HR MIN TEMP:  27; 6HR MAX TEMP:  33;

CADILLAC       FAIR      32  31  94 SW5       29.96S WCI  28
CHARLEVOIX     FAIR      30  30 100 SE3       30.00S
6HR MIN TEMP:  30; 6HR MAX TEMP:  36;

FRANKFORT      MOCLDY    37  33  85 SW3       29.96F
GAYLORD        FAIR      29  29 100 CALM      29.95S
6HR MIN TEMP:  28; 6HR MAX TEMP:  35;

GRAYLING       FAIR      30  28  92 CALM      29.97S
6HR MIN TEMP:  29; 6HR MAX TEMP:  33;

HARBOR SPRINGS FAIR      30  29  99 CALM      29.97F
HOUGHTON LAKE  FAIR      33  29  85 SW3       29.97S
6HR MIN TEMP:  30; 6HR MAX TEMP:  35;

MANISTEE       FAIR      30  29  96 E5        29.98F WCI  25
OSCODA         FAIR      29  28  94 SW5       29.99R WCI  24
6HR MIN TEMP:  28; 6HR MAX TEMP:  35;

PELLSTON       FAIR      29  28  96 CALM      29.97S
6HR MIN TEMP:  28; 6HR MAX TEMP:  36;

ROGERS CITY    FAIR      30  27  90 CALM      30.00R
TRAVERSE CITY  FAIR      32  30  92 CALM      29.96F
6HR MIN TEMP:  32; 6HR MAX TEMP:  36;

$$
MIZ007>008-015-210700-
EASTERN UPPER MICHIGAN

CITY           SKY/WX    TMP DP  RH WIND       PRES   REMARKS
KINROSS        CLOUDY    31  29  92 SW5       29.96F WCI  26
6HR MIN TEMP:  31; 6HR MAX TEMP:  36;

MACKINAC ISLAN FAIR      30  29  96 SW6       29.96F WCI  24
6HR MIN TEMP:  30; 6HR MAX TEMP:  34;

NEWBERRY       CLOUDY    29  28  96 S5        29.94S WCI  24
6HR MIN TEMP:  28; 6HR MAX TEMP:  35;

S. S. MARIE    FAIR      32  27  81 CALM      29.95S
6HR MIN TEMP:  32; 6HR MAX TEMP:  39;

MUNISING         N/A     29  29 100 S3        29.92S
6HR MIN TEMP:  29; 6HR MAX TEMP:  36;

$$
MIZ004>006-011>014-085-210700-
CENTRAL UPPER MICHIGAN

CITY           SKY/WX    TMP DP  RH WIND       PRES   REMARKS
ESCANABA       FAIR      27  25  93 SE3       29.94S FOG
6HR MIN TEMP:  27; 6HR MAX TEMP:  35;

MENOMINEE      FAIR      32  29  88 CALM      29.95S
6HR MIN TEMP:  32; 6HR MAX TEMP:  37;

SAWYER-GWINN     N/A     27  26  94 CALM      29.90F FOG
6HR MIN TEMP:  27; 6HR MAX TEMP:  33;

$$
MIZ001>003-009>011-084-210700-
WESTERN UPPER MICHIGAN

CITY           SKY/WX    TMP DP  RH WIND       PRES   REMARKS
IRON MOUNTAIN  FAIR      25  23  92 CALM      29.90F
6HR MIN TEMP:  24; 6HR MAX TEMP:  34;

HOUGHTON       FAIR      25  21  85 CALM      29.90R
6HR MIN TEMP:  23; 6HR MAX TEMP:  35;

COPPER HARBOR    N/A     30  27  88 CALM      29.90S
6HR MIN TEMP:  30; 6HR MAX TEMP:  35;

IRONWOOD       FAIR      29  27  92 SW6       29.93R WCI  23
6HR MIN TEMP:  28; 6HR MAX TEMP:  36;

$$

ABBREVIATIONS USED IN REMARKS
   TC - TEMPERATURE IN CELSIUS
  WCI - WIND CHILL INDEX
   HX - HEAT INDEX
  VSB - VISIBILITY




USA.gov is the U.S. government's official web portal to all federal, state and local government web resources and services.